Miscellaneous Local Product
Issued by NWS Hastings, NE

Home | Current Version | Previous Version | Graphics & Text | Print | Product List | Glossary On
Versions: 1 2 3 4 5 6 7 8 9 10 11 12 13 14 15 16 17 18 19 20 21 22 23 24 25 26 27 28 29 30 31 32 33 34 35 36 37 38 39 40 41 42 43 44 45 46 47 48 49 50
000
AXUS43 KGID 220202
MISGRI

GID CWA HOURLY WEATHER ROUNDUP
NATIONAL WEATHER SERVICE HASTINGS NE
800 PM CST SAT JAN 21 2017

NOTE: "FAIR" INDICATES FEW OR NO CLOUDS BELOW 12,000 FEET WITH NO
SIGNIFICANT WEATHER AND/OR OBSTRUCTIONS TO VISIBILITY.

...SOUTH CENTRAL NEBRASKA...

CITY           SKY/WX    TMP DP  RH WIND       PRES   REMARKS
GRAND ISLAND   CLEAR     32  32 100 CALM      29.52R
HASTINGS       CLEAR     35  33  92 CALM      29.53R
ORD            CLEAR     32  28  85 NW7       29.52R WCI  26
YORK           CLEAR     36  36 100 CALM      29.53R
AURORA         CLEAR     35  35 100 SE3       29.52R
LEXINGTON      CLEAR     33  29  87 CALM      29.52R
HOLDREGE       CLEAR     34  32  92 N3        29.51R
HEBRON         CLEAR     34  33  96 CALM      29.52R

...NEBRASKA PANHANDLE...

CITY           SKY/WX    TMP DP  RH WIND       PRES   REMARKS
CHADRON        CLOUDY    26  23  88 W6        29.57R WCI  19
ALLIANCE       CLEAR     26  22  84 S3        29.54R
SCOTTSBLUFF    MOCLDY    31  27  85 N6        29.54R WCI  25
SIDNEY         CLOUDY    28  24  85 CALM      29.54R

...WESTERN AND NORTH CENTRAL NEBRASKA...

CITY           SKY/WX    TMP DP  RH WIND       PRES   REMARKS
VALENTINE      CLEAR     29  26  89 W8        29.54R WCI  21
AINSWORTH      CLEAR     30  27  91 W5        29.54R WCI  25
ONEILL         CLEAR     34  29  83 NW8       29.53R WCI  27
BROKEN BOW     CLEAR     33  30  88 N6        29.51R WCI  28
IMPERIAL       CLOUDY    33  26  75 N7        29.54R WCI  27
NORTH PLATTE   CLEAR     28  25  88 CALM      29.53R
MCCOOK         CLEAR     34  28  79 N10       29.52R WCI  26

...EASTERN NEBRASKA...

CITY           SKY/WX    TMP DP  RH WIND       PRES   REMARKS
NORFOLK        CLEAR     35  30  82 SW5       29.51R WCI  31
SO SIOUX CITY  CLEAR     31  29  92 N6        29.54R WCI  25
TEKAMAH        CLEAR     35  32  88 N5        29.52R WCI  31
COLUMBUS       CLEAR     34  28  80 CALM      29.53R
ALBION         CLEAR     33  28  82 CALM      29.52R
OMAHA EPPLEY   CLEAR     37  31  78 CALM      29.53R
OFFUTT AFB     CLEAR     31  31 100 CALM      29.53R
MILLARD        CLEAR     38  37  93 CALM      29.53S
LINCOLN        CLEAR     34  31  88 N5        29.54R WCI  30
NEBRASKA CITY  CLEAR     47  35  62 CALM      29.53S
BEATRICE       CLEAR     38  37  93 NE5       29.52R WCI  35
FALLS CITY     CLEAR     42  38  85 CALM      29.52R

...NORTHERN KANSAS...

CITY           SKY/WX    TMP DP  RH WIND       PRES   REMARKS
GOODLAND       CLEAR     32  28  85 N7        29.50R WCI  26
HILL CITY      CLOUDY    37  34  89 N8        29.50R WCI  31
NORTON         CLEAR     34  28  80 N6        29.50R WCI  29
PHILLIPSBURG   CLEAR     39  32  75 N7        29.51R WCI  34
SMITH CENTER   CLEAR     37  34  87 NE5       29.51R WCI  34
HAYS           MOCLDY    44  36  73 NE9       29.47R
RUSSELL        CLOUDY    44  37  76 NE8       29.46R
CONCORDIA      CLOUDY    44  38  79 NE5       29.50R
SALINA         MOCLDY   N/A N/A N/A MISG        N/A
TOPEKA         LGT RAIN  47  43  86 CALM      29.51S



USA.gov is the U.S. government's official web portal to all federal, state and local government web resources and services.